This is the latest recevied weather packets stored in our database for station/object K6POO-1. If no packets are shown the sender has not sent any weather packets the latest 1 day(s).
| Time | Temp. | Humidity | Pressure | Rain* | Wind** | Luminosity | Snow |
|---|---|---|---|---|---|---|---|
| 1778080573 | 14.44° C | 82% | 1020.9 hPa | 0 mm | - | 185 W/m² | - |
| 1778079360 | 13.89° C | 81% | 1020.9 hPa | 0 mm | - | 113 W/m² | - |
| 1778079057 | 13.89° C | 82% | 1020.8 hPa | 0 mm | - | 120 W/m² | - |
| 1778077847 | 13.89° C | 83% | 1020.8 hPa | 0 mm | - | 85 W/m² | - |
| 1778076638 | 13.33° C | 84% | 1020.6 hPa | 0 mm | - | 52 W/m² | - |
| 1778076335 | 13.33° C | 84% | 1020.5 hPa | 0 mm | - | 55 W/m² | - |
| 1778075425 | 12.78° C | 85% | 1020.6 hPa | 0 mm | - | 38 W/m² | - |
| 1778074515 | 12.78° C | 86% | 1020.4 hPa | 0 mm | - | 18 W/m² | - |
| 1778074212 | 12.78° C | 85% | 1020.5 hPa | 0 mm | - | 15 W/m² | - |
| 1778073909 | 12.78° C | 85% | 1020.1 hPa | 0 mm | - | 11 W/m² | - |
| 1778073000 | 12.78° C | 84% | 1020 hPa | 0 mm | - | 3 W/m² | - |
| 1778072394 | 12.78° C | 84% | 1020 hPa | 0 mm | - | 1 W/m² | - |
| 1778071487 | 12.78° C | 85% | 1019.7 hPa | 0 mm | - | 0 W/m² | - |
| 1778071185 | 12.78° C | 85% | 1020 hPa | 0 mm | - | 0 W/m² | - |
| 1778070883 | 12.78° C | 86% | 1019.8 hPa | 0 mm | - | 0 W/m² | - |
| 1778070277 | 12.78° C | 86% | 1019.9 hPa | 0 mm | - | 0 W/m² | - |
| 1778069369 | 12.22° C | 87% | 1019.8 hPa | 0 mm | - | 0 W/m² | - |
| 1778068461 | 12.22° C | 87% | 1020 hPa | 0 mm | - | 0 W/m² | - |
| 1778066949 | 12.22° C | 87% | 1019.4 hPa | 0 mm | - | 0 W/m² | - |
| 1778066647 | 12.22° C | 87% | 1019.5 hPa | 0 mm | - | 0 W/m² | - |
| 1778066344 | 12.22° C | 86% | 1019.6 hPa | 0 mm | - | 0 W/m² | - |
| 1778066042 | 12.22° C | 87% | 1019.3 hPa | 0 mm | - | 0 W/m² | - |
| 1778065436 | 12.22° C | 87% | 1019.3 hPa | 0 mm | - | 0 W/m² | - |
| 1778065133 | 12.22° C | 87% | 1019.5 hPa | 0 mm | - | 0 W/m² | - |
| 1778064527 | 12.22° C | 87% | 1019.5 hPa | 0 mm | - | 0 W/m² | - |
* Rain latest hour (hover to see other rain measurements)
** Current wind speed in m/s (hover to see current wind gust speed)